Погода в Знаменском

Россия / Орловская область     53°16′37″N   35°40′41″E
темп.,
°C
ветер,
м/с
пор.,
м/с
влажн.,
%
обл.,
%
осадки,
мм/ч
давл.,
гПа
погр.,
м
7 марта, вс
вс700:00−11зюз47910 0.0 1019108
03:00−11юз612890 0.0 1016254
06:00−9юз8168853 0.0 1013456
09:00−6юз9188376 0.0 1009807
12:00−3зюз111889100 0.1 10041191
15:00−1зюз121994100 0.8 10001300
18:00−1зюз112094100 0.8 9981320
21:00−4зсз51579100 2.4 1001762
8 марта, пн
пн800:00−7зюз510827 0.0 1002206
03:00−8зюз4119219 0.0 1002236
06:00−8зюз4109464 0.0 1002238
09:00−8з5118942 0.0 1003426
12:00−5з698569 0.0 1004935
15:00−3зсз588184 0.1 10051090
18:00−7сз458557 0.2 100789
21:00−9ссз239672 0.3 101036
9 марта, вт
вт900:00−11сз339678 0.0 101227
03:00−12сз239768 0.1 101330
06:00−10сз349696 0.1 1015110
09:00−11сз379497 0.1 1016351
12:00−9ссз358696 0.1 1017666
15:00−8ссз358498 0.1 1019804
18:00−11сз2386100 0.1 101921
21:00−14сз239278 0.1 102220
10 марта, ср
ср1000:00−16ссз129848 0.0 102320
03:00−17ссз119937 0.0 102520
06:00−19в1110085 0.0 102520
09:00−16ю129692 0.1 102659
12:00−12ююв2291100 0.0 1026234
15:00−10ю3493100 0.1 1026327
18:00−10ююв369699 0.1 1025175
21:00−11ююв359699 0.3 1026123
11 марта, чт
чт1100:00−12ю4696100 0.6 1027202
03:00−12ю4895100 0.9 1027208
06:00−13ю479699 0.1 1027196
09:00−13ю489299 0.2 1027194
12:00−9ю589078 0.0 1026284
15:00−7ю598873 0.0 1025430
18:00−8ю49910 0.0 1023181
21:00−10ю5118911 0.0 1023198